Hog Shooter, Oklahoma
Current Conditions -  °F | °C
As of 10:53 PM on Monday 20 Oct 2014 (Local Time) from KBVO Reporting Station
Haze Haze  
Wind Chill: 52°   Ceiling: Unl
Heat Index: 52°   Visibility: 2mi
Dew Point: 52°   Wind: 0mph
Humidity: 100%   Direction: NA
Pressure: 30.07"   Gusts: NA
Location:  36.7524°N, 96.0733°W
Report Text: KBVO 210353Z AUTO 00000KT 2SM BR CLR 11/11 A3007 RMK AO2 SLP178 T01110111
Loading
Personal Weather Stations






























Interactive Weather Map
Tropical Storm Tracking
New forecast layout! Learn more

10-Day Weather Forecast

Advertisements
Track Severe Weather on mobile